Home > Weather > Beirut > Past weeks

Flag for Lebanon Past Weather in Beirut, Lebanon — Yesterday and Last 2 Weeks

Now
84 °F

Passing clouds.


Feels Like: 90 °F
Forecast: 83 / 86 °F
Wind: 5 mph from Northwest

Location: Beirut Airport

Current Time: Aug 24, 2016 at 11:04:09 PM

Latest Report: Aug 24, 2016 at 10:00 PM


Visibility: 5 mi

Pressure: 29.80 "Hg

Humidity: 66%

Dew Point: 72 °F

Location of BeirutLocation

Past Weather in Beirut — Graph

°F

Beirut Temperature Yesterday

Maximum temperature yesterday: 86 °F (at 2:00 PM)
Minimum temperature yesterday: 81 °F (at 12:00 AM)
Average temperature yesterday: 83 °F

High & Low Weather Summary for the Past Weeks

 TemperatureHumidityPressure
High90 °F (Aug 11, 3:00 PM)84% (Aug 19, 2:00 AM)29.89 "Hg (Aug 19, 2:00 AM)
Low79 °F (Aug 13, 6:00 AM)45% (Aug 17, 8:00 AM)29.74 "Hg (Aug 9, 9:00 PM)
Average84 °F67%29.82 "Hg
* Reported Aug 9 9:00 PM — Aug 24 9:00 PM, Beirut, Weather by CustomWeather, © 2016

Note: Actual official high and low records may vary slightly from our data, if they occured in-between our weather recording intervals... More about our weather records

Advertising

Beirut Weather History for the Previous 24 Hours

Scroll right to see more
 ConditionsComfort  
Time TempWeatherWind HumidityBarometerVisibility
9:00 PM
Wed, Aug 24
84 °FPassing clouds.5 mph70%29.80 "Hg5 mi
8:00 PM84 °FPartly sunny.5 mph74%29.77 "Hg5 mi
7:00 PM84 °FPartly sunny.6 mph74%29.77 "Hg5 mi
6:00 PM84 °FPartly sunny.9 mph74%29.77 "Hg5 mi
5:00 PM84 °FPartly sunny.9 mph74%29.77 "Hg5 mi
4:00 PM84 °FPartly sunny.9 mph74%29.77 "Hg5 mi
3:00 PM86 °FPartly sunny.9 mph70%29.77 "Hg5 mi
2:00 PM86 °FPartly sunny.9 mph66%29.80 "Hg5 mi
1:00 PM86 °FPartly sunny.12 mph66%29.80 "Hg5 mi
12:00 PM88 °FPartly sunny.12 mph62%29.80 "Hg5 mi
11:00 AM86 °FPartly sunny.10 mph70%29.80 "Hg5 mi
10:00 AM84 °FPartly sunny.7 mph70%29.80 "Hg5 mi
9:00 AM86 °FPartly sunny.3 mph62%29.80 "Hg5 mi
8:00 AM82 °FPartly sunny.5 mph70%29.80 "Hg5 mi
7:00 AM82 °FPassing clouds.3 mph70%29.80 "Hg5 mi
6:00 AM82 °FPassing clouds.7 mph74%29.80 "Hg5 mi
5:00 AM82 °FPassing clouds.3 mph74%29.80 "Hg4 mi
4:00 AM82 °FPassing clouds.5 mph74%29.80 "Hg4 mi
3:00 AM82 °FPassing clouds.7 mph74%29.80 "Hg4 mi
2:00 AM82 °FPassing clouds.6 mph74%29.83 "Hg4 mi
1:00 AM82 °FPassing clouds.6 mph79%29.83 "Hg4 mi
12:00 AM82 °FPassing clouds.5 mph74%29.83 "Hg4 mi
11:00 PM
Tue, Aug 23
84 °FPassing clouds.6 mph70%29.83 "Hg4 mi
Weather by CustomWeather, © 2016

See weather overviewHow to use our weather pages